📊 Raw Sensor Data
Showing records 45551 to 45575 of 85,055 total
| ID | Distance (ft) | Battery V | Battery A | Int Temp (°F) | Int Humid (%) | Ext Temp (°F) | Solar V | RSSI | SNR | Time Stamp |
|---|---|---|---|---|---|---|---|---|---|---|
| 39517 | 15.6 | 3.95 | -5 | 55 | 44 | 56 | 0.00 | -74 | 8 | 05/02/2025 10:15 PM |
| 39516 | -- | 4.01 | -5 | 55 | 44 | 56 | 0.00 | -76 | 8 | 05/02/2025 10:00 PM |
| 39515 | -- | 3.95 | -5 | 56 | 44 | 56 | 0.00 | -75 | 8 | 05/02/2025 09:45 PM |
| 39514 | 15.6 | 3.95 | -5 | 56 | 45 | 57 | 0.00 | -75 | 8 | 05/02/2025 09:30 PM |
| 39513 | -- | 3.95 | -5 | 57 | 45 | 57 | 0.00 | -75 | 8 | 05/02/2025 09:15 PM |
| 39512 | -- | 4.01 | -5 | 57 | 45 | 58 | 0.10 | -75 | 8 | 05/02/2025 09:01 PM |
| 39511 | -- | 3.96 | -5 | 58 | 46 | 58 | 0.10 | -73 | 8 | 05/02/2025 08:45 PM |
| 39510 | -- | 3.96 | -5 | 58 | 47 | 59 | 0.00 | -74 | 8 | 05/02/2025 08:30 PM |
| 39509 | -- | 3.96 | -5 | 59 | 48 | 59 | 0.30 | -71 | 8 | 05/02/2025 08:15 PM |
| 39508 | 15.6 | 3.95 | -9 | 60 | 48 | 59 | 2.60 | -74 | 8 | 05/02/2025 08:00 PM |
| 39507 | -- | 3.96 | -5 | 61 | 50 | 61 | 4.50 | -73 | 8 | 05/02/2025 07:45 PM |
| 39506 | -- | 3.97 | 0 | 63 | 51 | 62 | 4.50 | -73 | 9 | 05/02/2025 07:30 PM |
| 39505 | -- | 4.04 | 6 | 65 | 52 | 63 | 4.50 | -74 | 8 | 05/02/2025 07:15 PM |
| 39504 | -- | 4.00 | -16 | 69 | 53 | 65 | 4.50 | -75 | 8 | 05/02/2025 07:00 PM |
| 39503 | -- | 4.03 | 0 | 74 | 51 | 68 | 4.50 | -74 | 8 | 05/02/2025 06:46 PM |
| 39502 | 15.8 | 4.09 | 0 | 79 | 48 | 71 | 5.10 | -72 | 8 | 05/02/2025 06:30 PM |
| 39501 | 15.7 | 4.13 | 0 | 80 | 48 | 73 | 5.10 | -73 | 7 | 05/02/2025 06:15 PM |
| 39500 | 15.8 | 4.01 | 0 | 81 | 47 | 74 | 5.10 | -73 | 8 | 05/02/2025 06:00 PM |
| 39499 | 15.8 | 4.01 | 0 | 82 | 47 | 73 | 5.10 | -74 | 8 | 05/02/2025 05:45 PM |
| 39498 | 15.8 | 4.01 | 0 | 84 | 46 | 75 | 5.10 | -73 | 8 | 05/02/2025 05:30 PM |
| 39497 | 15.8 | 4.01 | 0 | 84 | 46 | 76 | 5.10 | -71 | 8 | 05/02/2025 05:15 PM |
| 39496 | 15.8 | 4.01 | 0 | 85 | 45 | 77 | 5.10 | -73 | 8 | 05/02/2025 05:00 PM |
| 39495 | 15.8 | 4.14 | 0 | 86 | 45 | 77 | 5.10 | -72 | 8 | 05/02/2025 04:45 PM |
| 39494 | 15.8 | 4.01 | 0 | 86 | 44 | 78 | 5.10 | -75 | 8 | 05/02/2025 04:30 PM |
| 39493 | 15.8 | 4.01 | 0 | 88 | 43 | 78 | 5.10 | -74 | 8 | 05/02/2025 04:15 PM |